Caldwell, NJ

9:53 PM EDT on October 13, 2019 (GMT -0400)
Essex County

Weather History for KCDW - August, 2019

Change the Weather History Date:

Thursday, August 22, 2019

  Actual Average Record
Temperature  
Mean Temperature 82 °F -  
Max Temperature 91 °F 81 °F 96 °F (1955)
Min Temperature 72 °F 54 °F 38 °F (1982)
Cooling Degree Days 16    
Growing Degree Days 32 (Base 50)    
Moisture  
Dew Point 70 °F    
Average Humidity 79    
Maximum Humidity 97    
Minimum Humidity 44    
Precipitation  
Precipitation 0.87 in - - ()
Sea Level Pressure  
Sea Level Pressure 29.90 in    
Wind  
Wind Speed 3 mph ()    
Max Wind Speed 12 mph    
Max Gust Speed 29 mph    
Visibility 7.7 miles    
Events Fog , Rain , Thunderstorm    
Averages and records for this station are not official NWS values.
T = Trace of Precipitation, MM = Missing Value Source: Averaged Metar Reports

Daily Weather History Graph

Daily Weather History Graph

Search for Another Location

Airport or City:

Astronomy

Aug. 22, 2019 Rise Set
Actual Time 6:13 AM EDT 7:45 PM EDT
Civil Twilight 5:44 AM EDT 8:14 PM EDT
Nautical Twilight 5:10 AM EDT 8:49 PM EDT
Astronomical Twilight 4:32 AM EDT 9:25 PM EDT
Moon 11:31 PM EDT (8/22) 12:49 PM EDT (8/22)
Length of Visible Light 14h 29m
Length of Day
13h 31m
Waning Gibbous, 60% of the Moon is Illuminated
Aug 22
Waning Gibbous
Aug 23
Last Quarter
Aug 30
New
Sep 5
First Quarter
Sep 14
Full

Hourly Weather History & Observations

Time (EDT) Temp. Heat Index Dew Point Humidity Pressure Visibility Wind Dir Wind Speed Gust Speed Precip Events Conditions
12:53 AM 78.1 °F - 73.0 °F 84% 29.88 in 10.0 mi Calm Calm - N/A   Partly Cloudy
1:53 AM 77.0 °F - 73.0 °F 88% 29.87 in 10.0 mi SSW 3.5 mph - N/A   Mostly Cloudy
2:53 AM 77.0 °F - 73.0 °F 88% 29.86 in 10.0 mi SW 3.5 mph - N/A   Scattered Clouds
3:53 AM 75.0 °F - 72.0 °F 90% 29.84 in 10.0 mi Calm Calm - N/A   Clear
4:53 AM 75.0 °F - 72.0 °F 90% 29.83 in 10.0 mi Calm Calm - N/A   Clear
5:53 AM 73.9 °F - 72.0 °F 93% 29.86 in 10.0 mi Variable 3.5 mph - N/A   Clear
6:53 AM 73.9 °F - 72.0 °F 93% 29.88 in 10.0 mi Calm Calm - N/A   Clear
7:53 AM 77.0 °F - 72.0 °F 84% 29.89 in 10.0 mi SSW 3.5 mph - N/A   Clear
8:53 AM 80.1 °F 83.6 °F 71.1 °F 74% 29.90 in 10.0 mi West 6.9 mph - N/A   Clear
9:53 AM 84.0 °F 87.0 °F 68.0 °F 58% 29.91 in 10.0 mi NNW 8.1 mph 18.4 mph N/A   Clear
10:53 AM 84.9 °F 88.2 °F 68.0 °F 57% 29.91 in 10.0 mi Variable 3.5 mph - N/A   Clear
11:53 AM 88.0 °F 90.7 °F 66.9 °F 49% 29.90 in 10.0 mi Variable 5.8 mph - N/A   Clear
12:53 PM 89.1 °F 92.9 °F 68.0 °F 50% 29.89 in 10.0 mi NW 11.5 mph - N/A   Mostly Cloudy
1:53 PM 90.0 °F 92.8 °F 66.9 °F 46% 29.89 in 10.0 mi Variable 6.9 mph - N/A   Scattered Clouds
2:53 PM 91.0 °F 94.3 °F 66.9 °F 45% 29.88 in 10.0 mi West 4.6 mph - N/A   Mostly Cloudy
3:53 PM 91.0 °F 94.3 °F 66.9 °F 45% 29.86 in 10.0 mi West 6.9 mph - N/A   Scattered Clouds
4:53 PM 91.0 °F 93.8 °F 66.0 °F 44% 29.85 in 10.0 mi Variable 6.9 mph - N/A   Scattered Clouds
5:53 PM 84.0 °F 88.4 °F 70.0 °F 63% 29.87 in 10.0 mi Variable 4.6 mph - N/A   Mostly Cloudy
6:53 PM 82.9 °F 85.8 °F 68.0 °F 60% 29.88 in 10.0 mi Calm Calm - N/A   Clear
7:53 PM 81.0 °F 84.1 °F 69.1 °F 67% 29.87 in 10.0 mi Variable 4.6 mph - N/A   Mostly Cloudy
8:15 PM 75.0 °F - 70.0 °F 84% 29.92 in 0.8 mi NW 10.4 mph 28.8 mph 0.33 in Rain Heavy Rain
8:20 PM 73.0 °F - 70.0 °F 90% 29.91 in 0.5 mi Variable 3.5 mph 28.8 mph 0.47 in Fog , Rain Heavy Rain
8:28 PM 72.0 °F - 70.0 °F 93% 29.91 in 2.0 mi Variable 3.5 mph - 0.49 in Rain Light Rain
8:31 PM 73.0 °F - 70.0 °F 90% 29.91 in 5.0 mi ESE 4.6 mph - 0.49 in Rain Light Rain
8:42 PM 73.0 °F - 71.1 °F 93% 29.92 in 10.0 mi SSW 4.6 mph - 0.49 in   Overcast
8:53 PM 73.0 °F - 71.1 °F 93% 29.93 in 10.0 mi Calm Calm - 0.49 in   Overcast
9:15 PM 73.9 °F - 71.1 °F 91% 29.92 in 10.0 mi Calm Calm - N/A Thunderstorm Overcast
9:23 PM 73.0 °F - 71.1 °F 93% 29.93 in 1.8 mi Calm Calm - 0.06 in Rain , Thunderstorm Heavy Rain
9:30 PM 73.0 °F - 71.1 °F 93% 29.94 in 1.2 mi West 3.5 mph - 0.09 in Rain Rain
9:44 PM 73.0 °F - 72.0 °F 96% 29.94 in 0.8 mi Calm Calm - 0.32 in Rain Rain
9:50 PM 73.4 °F - 71.6 °F 94% 29.94 in 2.0 mi South 3.5 mph - 0.34 in Rain Rain
9:53 PM 73.0 °F - 72.0 °F 96% 29.94 in 3.0 mi SSE 4.6 mph - 0.35 in Rain Rain
10:53 PM 73.9 °F - 72.0 °F 93% 29.93 in 8.0 mi Calm Calm - 0.03 in   Mostly Cloudy
11:41 PM 73.9 °F - 72.0 °F 93% 29.93 in 8.0 mi Calm Calm - N/A   Overcast
11:53 PM 73.9 °F - 73.0 °F 97% 29.94 in 8.0 mi Calm Calm - 0.00 in Rain Light Rain